Location: Unspecified
(37.7830°S, 0.0000°E)
Time: 12:48:46
(UTC+00:00)

N. Korean satellite - Visible Passes

Search period start: 24 May 2019 00:00
Search period end: 03 June 2019 00:00
Orbit: 456 x 508 km, 97.2° (Epoch: 23 May)

Date Brightness Start Highest point End Pass type
(mag) Time Alt. Az. Time Alt. Az. Time Alt. Az.
24 May 6.4 05:20:34 10° NNE 05:24:02 89° ESE 05:26:01 24° SSW visible
24 May 7.4 18:22:01 10° S 18:25:39 52° WSW 18:29:17 10° NNW visible
25 May 7.9 04:55:51 10° NE 04:59:06 38° ESE 05:00:40 24° SSE visible
25 May 8.6 06:32:24 10° W 06:32:43 10° W 06:33:01 10° W visible
25 May 6.6 17:56:58 10° SSE 18:00:42 69° E 18:04:25 10° N visible
26 May 9.1 04:31:47 10° ENE 04:34:16 18° ESE 04:35:19 16° SE visible
26 May 7.8 06:04:48 10° NNW 06:07:31 21° W 06:09:37 13° SW visible
26 May 7.5 17:32:17 10° SSE 17:35:40 31° E 17:39:01 10° NNE visible
26 May 9.6 19:06:33 10° SSW 19:08:47 15° WSW 19:11:02 10° WNW visible
27 May 6.7 05:39:04 10° N 05:42:25 47° W 05:44:16 23° SW visible
27 May 8.5 18:40:41 10° S 18:43:59 30° WSW 18:47:17 10° NW visible
28 May 6.6 05:13:57 10° NNE 05:17:25 72° ESE 05:18:56 32° S visible
28 May 7.0 18:15:22 10° S 18:19:06 65° WSW 18:22:48 10° NNW visible
29 May 8.3 04:49:23 10° NE 04:52:30 31° ESE 04:53:36 26° SE visible
29 May 8.5 06:24:28 10° WNW 06:26:02 12° W 06:27:37 10° WSW visible
29 May 6.7 17:50:24 10° SSE 17:54:07 56° E 17:57:48 10° N visible
30 May 9.3 04:25:31 10° ENE 04:27:41 16° ESE 04:28:16 15° ESE visible
30 May 7.5 05:57:53 10° NNW 06:00:51 26° W 06:02:34 18° SW visible
30 May 7.7 17:25:50 10° SE 17:29:03 26° E 17:32:14 10° NNE visible
30 May 9.4 18:59:37 10° SSW 19:02:15 18° WSW 19:04:53 10° WNW visible
31 May 6.5 05:32:20 10° N 05:35:46 59° W 05:37:14 31° SSW visible
31 May 8.2 18:33:56 10° S 18:37:25 36° WSW 18:40:53 10° NW visible
01 Jun 7.0 05:07:21 10° NNE 05:10:48 58° ESE 05:11:54 38° SSE visible
01 Jun 6.7 18:08:43 10° S 18:12:30 80° WSW 18:16:16 10° NNW visible
02 Jun 8.6 04:42:55 10° NE 04:45:54 26° ESE 04:46:35 25° SE visible
02 Jun 8.3 06:17:11 10° NW 06:19:20 15° W 06:20:53 12° WSW visible
02 Jun 7.0 17:43:50 10° SSE 17:47:30 46° E 17:51:07 10° N visible
02 Jun 9.8 19:19:17 10° SW 19:20:27 11° WSW 19:21:37 10° W visible
